Location: Unspecified
(51.3762°N, 0.0000°E)
Time: 23:52:22
(UTC+00:00)

nSIGHT-1 - Pass Details

Date: 03 September 2019
Orbit: 342 x 348 km, 51.6° (Epoch: 19 September)

Event Time Altitude Azimuth Distance (km) Brightness Sun altitude
Exits shadow 04:16:11 15° 258° (WSW) 1,064 ? -9.5°
Maximum altitude 04:17:52 24° 212° (SSW) 776 ? -9.3°
Drops below altitude 10° 04:20:15 10° 155° (SSE) 1,291 ? -9.0°
Sets 04:22:27 0° 141° (SE) 2,128 ? -8.6°
